User: anonymous   Login
Location: ?????
(32.7281°N, 34.9563°E)
Time: 03:42:49
(UTC+00:00)
Language:

Cosmos 1825 - Orbit

View from above orbital plane
View from above orbital plane
View from above satellite
View from above satellite

Ground track
Ground track

The orbit data is extracted from the following two-line orbital elements,

1 17566U 87024A   21015.42782756  .00000738  00000-0  32433-4 0  9993
2 17566  82.5041  71.4252 0003271 359.7898   0.3335 15.20365508852228
Epoch (UTC): 15 January 2021 10:16:04
Eccentricity: 0.0003271
inclination: 82.5041°
perigee height: 502 km
apogee height: 507 km
right ascension of ascending node: 71.4252°
argument of perigee: 359.7898°
revolutions per day: 15.20365508
mean anomaly at epoch: 0.3335°
orbit number at epoch: 85222

The dashed part of the orbit path shows where the satellite is in the earth's shadow,  

DLR